Simultaneous Nadir Overpasses (SNOs) Predictions

Prediction of SNOs between GOES-17 and METOP-B Satellite Orbit:

Table of predicted SNOs for the next 14.0 days since TLE Epoch: 4/24/2020
Index Date Time (GOES-17) GOES-17 Lat,Lon METOP-B Lat,Lon Distance(km) Time Diff (sec)
1 04/26/2020 18:39:25 0.03,-137.19 -0.01,-136.89 33.58 80
2 04/28/2020 06:58:26 -0.03,-137.16 -0.98,-141.49 493.09 80
3 04/29/2020 06:35:06 -0.03,-137.15 0.13,-136.50 74.49 80
4 04/30/2020 18:53:58 0.02,-137.14 0.91,-141.05 446.87 80
5 05/01/2020 18:35:58 0.02,-137.12 -0.20,-136.06 120.46 80
6 05/03/2020 06:55:00 -0.02,-137.09 -0.79,-140.66 407.25 80
7 05/04/2020 06:31:40 -0.02,-137.07 0.31,-135.67 159.79 80
8 05/05/2020 18:50:31 0.01,-137.05 0.72,-140.23 362.42 80
9 05/06/2020 18:32:32 0.01,-137.02 -0.39,-135.23 204.33 80
10 05/08/2020 06:51:32 -0.01,-136.98 -0.66,-139.82 324.38 80




NCC Satellite Simultaneous Nadir Overpasses (SNOs) Prediction Service
